(149471) = 1999 FA16 = 2003 EF13 = 2005 UR92

Discovered at Palomar on 2003-03-06 by NEAT.

Orbit

Orbit type: Main Belt

Note: WebGL enabled browser required.

epoch2024-03-31.0
epoch JD2460400.5
perihelion date2021-07-03.85978
perihelion JD2459399.35978
argument of perihelion (°)305.87615
ascending node (°)335.00295
inclination (°)3.70231
eccentricity0.1384607
perihelion distance (AU)2.2562363
Tisserand w.r.t. Jupiter3.4
ΔV w.r.t. Earth (km/sec)9.5
semimajor axis (AU)2.6188431
mean anomaly (°)232.82763
mean daily motion (°/day)0.23256250
aphelion distance (AU)2.981
period (years)4.24
P-vector [x]0.18945187
P-vector [y]-0.87877396
P-vector [z]-0.43802320
Q-vector [x]0.98151079
Q-vector [y]0.15709345
Q-vector [z]0.10935361
absolute magnitude15.99
phase slope0.15
uncertainty0
referenceMPEC 2024-E144
observations used685
oppositions19
arc length (days)9121
first opposition used1999
last opposition used2024
residual rms (arc-secs)0.76
perturbers coarse indicatorM-v
perturbers precise indicator003Ek
first observation date used1999-03-21.0
last observation date used2024-03-10.0
computer nameMPCLINUX
JD of orbit computation2456700.499722
perihelion JD uncertainty (days)9.4360E-05
argument of perihelion uncertainty (°)5.6031E-05
ascending node uncertainty (°)5.1404E-05
inclination uncertainty (°)4.6424E-06
eccentricity uncertainty 2.7838E-08
perihelion distance uncertainty (AU)6.9632E-08
Minimum Orbit Intersection Distances (in AU)
for orbit epoch: 2460400.5, reference: E2024-G51
Mercury1.79595
Venus1.52909
Earth1.24208
Mars0.79844
Jupiter2.15311
Saturn6.07568
Uranus15.6207
Neptune26.9944

Observations

700 total observations over interval: 1999 03 21.34825 – 2024 03 10.248112
These data are available for download (format description).

Date (UT) J2000 RA J2000 Dec Magn Location Ref
1999 03 21.34825 11 18 23.52 +02 29 12.0 19.8 V 691 – Steward Observatory, Kitt Peak-Spacewatch MPS 4243
1999 03 21.37347 11 18 22.08 +02 29 18.6 19.9 V 691 – Steward Observatory, Kitt Peak-Spacewatch MPS 4243
1999 03 21.39494 11 18 20.90 +02 29 24.2 19.8 V 691 – Steward Observatory, Kitt Peak-Spacewatch MPS 4243
1999 03 22.25133 11 17 35.73 +02 33 08.2 20.1 V 691 – Steward Observatory, Kitt Peak-Spacewatch MPS 4243
1999 03 22.27465 11 17 34.45 +02 33 14.1 19.9 V 691 – Steward Observatory, Kitt Peak-Spacewatch MPS 4243
1999 03 22.29543 11 17 33.29 +02 33 19.5 20.0 V 691 – Steward Observatory, Kitt Peak-Spacewatch MPS 4243
2000 08 07.35582 21 13 21.64 -18 27 58.1 19.2   608 – Haleakala-AMOS MPS 155842
2000 08 07.36713 21 13 20.99 -18 27 59.7 19.6   608 – Haleakala-AMOS MPS 155842
2000 08 07.37789 21 13 20.33 -18 28 00.8 19.3   608 – Haleakala-AMOS MPS 155842
2001 11 24.22557 04 26 01.69 +27 20 41.9 19.7   704 – Lincoln Laboratory ETS, New Mexico MPS 155281
2001 11 24.24009 04 26 00.71 +27 20 40.0 20.1   704 – Lincoln Laboratory ETS, New Mexico MPS 155281
2001 11 24.25587 04 25 59.81 +27 20 41.9 20.3   704 – Lincoln Laboratory ETS, New Mexico MPS 155281
2001 11 24.27038 04 25 58.75 +27 20 37.3 20.3   704 – Lincoln Laboratory ETS, New Mexico MPS 155281
2001 12 19.22148 04 01 37.45 +26 09 12.4 20.0   704 – Lincoln Laboratory ETS, New Mexico MPS 155281
2001 12 19.25176 04 01 35.88 +26 09 05.8 19.8   704 – Lincoln Laboratory ETS, New Mexico MPS 155281
2001 12 19.26689 04 01 35.13 +26 09 02.7 20.0   704 – Lincoln Laboratory ETS, New Mexico MPS 155281
2001 12 19.28204 04 01 34.41 +26 08 59.8 20.2   704 – Lincoln Laboratory ETS, New Mexico MPS 155281
2002 12 14.490960 10 30 44.147 +10 51 58.18 21.32 V 645 – Apache Point-Sloan Digital Sky Survey MPS 155281
2002 12 14.494432 10 30 44.214 +10 51 57.60 22.17   645 – Apache Point-Sloan Digital Sky Survey MPS 155281
2003 03 06.39554 09 50 21.50 +13 23 28.9 20.5   644 – Palomar Mountain/NEAT MPS 74437
2003 03 06.40599 09 50 20.94 +13 23 30.9 20.7   644 – Palomar Mountain/NEAT MPS 74437
2003 03 06.41643 09 50 20.39 +13 23 32.4 20.8   644 – Palomar Mountain/NEAT MPS 74437
2003 03 08.22845 09 48 51.11 +13 28 58.3 20.4 V 291 – LPL/Spacewatch II MPS 74437
2003 03 08.25825 09 48 49.54 +13 29 03.6 21.1 V 291 – LPL/Spacewatch II MPS 74437
2003 03 08.28352 09 48 48.25 +13 29 08.5 21.1 V 291 – LPL/Spacewatch II MPS 74437
2003 03 12.25572 09 45 43.70 +13 39 58.2 20.3   644 – Palomar Mountain/NEAT MPS 74437
2003 03 12.27733 09 45 42.71 +13 40 01.2 20.2   644 – Palomar Mountain/NEAT MPS 74437
2003 03 12.29836 09 45 41.73 +13 40 04.5 20.4   644 – Palomar Mountain/NEAT MPS 74437
2005 10 22.23378 03 06 22.02 +22 54 30.0 19.9 V 691 – Steward Observatory, Kitt Peak-Spacewatch MPS 147913
2005 10 22.25100 03 06 21.08 +22 54 28.1 19.8 V 691 – Steward Observatory, Kitt Peak-Spacewatch MPS 147913
2005 10 22.26836 03 06 20.16 +22 54 25.6 20.0 V 691 – Steward Observatory, Kitt Peak-Spacewatch MPS 147913
2005 10 26.30605 03 02 41.59 +22 44 37.1 19.8 R 699 – Lowell Observatory-LONEOS MPS 155281
2005 10 26.32802 03 02 40.30 +22 44 35.2   699 – Lowell Observatory-LONEOS MPS 155281
2005 10 26.34996 03 02 39.02 +22 44 30.2   699 – Lowell Observatory-LONEOS MPS 155281
2005 10 26.37193 03 02 37.79 +22 44 25.9   699 – Lowell Observatory-LONEOS MPS 155281
2005 10 27.48787 03 01 34.94 +22 41 22.4 19.8 V 691 – Steward Observatory, Kitt Peak-Spacewatch MPS 147913
2005 10 27.50522 03 01 33.92 +22 41 19.6 19.9 V 691 – Steward Observatory, Kitt Peak-Spacewatch MPS 147913
2005 10 27.52252 03 01 32.93 +22 41 16.2 19.9 V 691 – Steward Observatory, Kitt Peak-Spacewatch MPS 147913
2005 10 29.36686 02 59 47.76 +22 35 54.6 19.8 V 703 – Catalina Sky Survey MPS 147913
2005 10 29.37211 02 59 47.54 +22 35 53.2 19.3 V 703 – Catalina Sky Survey MPS 147913
2005 10 29.37737 02 59 47.18 +22 35 51.6 19.8 V 703 – Catalina Sky Survey MPS 147913
2005 10 29.38259 02 59 46.82 +22 35 51.0 19.1 V 703 – Catalina Sky Survey MPS 147913
2005 10 31.23403 02 57 59.60 +22 30 04.3 19.8 V 691 – Steward Observatory, Kitt Peak-Spacewatch MPS 147913
2005 10 31.25138 02 57 58.56 +22 30 01.1 19.9 V 691 – Steward Observatory, Kitt Peak-Spacewatch MPS 147913
2005 10 31.26872 02 57 57.47 +22 29 58.6 19.5 V 691 – Steward Observatory, Kitt Peak-Spacewatch MPS 147913
2005 11 07.26012 02 51 03.03 +22 05 07.4 19.7   704 – Lincoln Laboratory ETS, New Mexico MPS 149490
2005 11 07.27243 02 51 02.35 +22 05 04.3 20.2   704 – Lincoln Laboratory ETS, New Mexico MPS 149490
2005 11 07.28464 02 51 01.71 +22 05 01.6 20.3   704 – Lincoln Laboratory ETS, New Mexico MPS 149490
2005 11 07.29686 02 51 00.88 +22 04 58.9 20.1   704 – Lincoln Laboratory ETS, New Mexico MPS 149490
2005 11 07.30907 02 51 00.12 +22 04 54.4 20.3   704 – Lincoln Laboratory ETS, New Mexico MPS 149490
2005 11 25.25546 02 34 34.78 +20 49 16.2 19.7 V 703 – Catalina Sky Survey MPS 152032
2005 11 25.26295 02 34 34.53 +20 49 16.4 19.3 V 703 – Catalina Sky Survey MPS 152032
2005 11 25.27028 02 34 34.10 +20 49 13.2 20.1 V 703 – Catalina Sky Survey MPS 152032
2005 11 25.27779 02 34 33.74 +20 49 11.5 19.6 V 703 – Catalina Sky Survey MPS 152032
2005 12 02.29771 02 29 33.14 +20 20 07.7 20.0 V 703 – Catalina Sky Survey MPS 153654
2005 12 02.30696 02 29 32.60 +20 20 04.2 20.3 V 703 – Catalina Sky Survey MPS 153654
2005 12 02.31648 02 29 32.20 +20 20 02.7 20.2 V 703 – Catalina Sky Survey MPS 153654
2005 12 02.32597 02 29 31.95 +20 19 58.7 20.1 V 703 – Catalina Sky Survey MPS 153654
2007 01 16.31067 08 58 37.02 +19 54 54.1 19.3 V 703 – Catalina Sky Survey MPS 196337
2007 01 16.31720 08 58 36.80 +19 54 55.5 19.5 V 703 – Catalina Sky Survey MPS 196337
2007 01 16.32373 08 58 36.55 +19 54 55.9 19.9 V 703 – Catalina Sky Survey MPS 196337
2007 01 16.33029 08 58 36.33 +19 54 56.9 19.5 V 703 – Catalina Sky Survey MPS 196337
2007 01 17.30160 08 57 44.00 +19 57 55.5 21.4 V 691 – Steward Observatory, Kitt Peak-Spacewatch MPS 196337
2007 01 17.31901 08 57 42.96 +19 57 59.1 20.3 V 691 – Steward Observatory, Kitt Peak-Spacewatch MPS 196337
2007 01 17.33636 08 57 41.98 +19 58 02.3 20.3 V 691 – Steward Observatory, Kitt Peak-Spacewatch MPS 196337
2007 01 24.26257 08 51 09.59 +20 19 13.8 20.5 V 691 – Steward Observatory, Kitt Peak-Spacewatch MPS 197032
2007 01 24.28141 08 51 08.46 +20 19 17.4 20.4 V 691 – Steward Observatory, Kitt Peak-Spacewatch MPS 197032
2007 01 24.29689 08 51 07.52 +20 19 20.2 20.3 V 691 – Steward Observatory, Kitt Peak-Spacewatch MPS 197032
2007 01 24.38040 08 51 02.48 +20 19 35.2 19.9 V G96 – Mt. Lemmon Survey MPS 197032
2007 01 24.38667 08 51 02.08 +20 19 36.0 19.9 V G96 – Mt. Lemmon Survey MPS 197032
2007 01 24.39301 08 51 01.72 +20 19 37.1 20.0 V G96 – Mt. Lemmon Survey MPS 197032
2007 01 24.39929 08 51 01.36 +20 19 38.4 20.0 V G96 – Mt. Lemmon Survey MPS 197032
2007 01 25.29069 08 50 09.25 +20 22 20.1 20.0   704 – Lincoln Laboratory ETS, New Mexico MPS 197033
2007 01 25.30312 08 50 08.38 +20 22 22.0 19.8   704 – Lincoln Laboratory ETS, New Mexico MPS 197033
2007 01 25.31552 08 50 07.68 +20 22 24.4 20.1   704 – Lincoln Laboratory ETS, New Mexico MPS 197033
2007 02 16.21416 08 29 07.54 +21 15 19.7 21.2 V 703 – Catalina Sky Survey MPS 200226
2007 02 16.22144 08 29 07.29 +21 15 20.0 20.1 V 703 – Catalina Sky Survey MPS 200226
2007 02 16.22852 08 29 06.97 +21 15 21.3 20.7 V 703 – Catalina Sky Survey MPS 200226
2007 02 16.23576 08 29 06.68 +21 15 23.9 19.2 V 703 – Catalina Sky Survey MPS 200226
2007 02 16.24182 08 29 06.21 +21 15 22.3 20.1 V G96 – Mt. Lemmon Survey MPS 200226
2007 02 16.24653 08 29 05.96 +21 15 23.2 20.1 V G96 – Mt. Lemmon Survey MPS 200226
2007 02 16.25101 08 29 05.74 +21 15 23.3 20.1 V G96 – Mt. Lemmon Survey MPS 200226
2007 02 16.25550 08 29 05.49 +21 15 24.2 20.3 V G96 – Mt. Lemmon Survey MPS 200226
2007 02 21.331856 08 24 59.837 +21 22 27.50 20.65 V 645 – Apache Point-Sloan Digital Sky Survey MPS 390024
2007 02 21.335328 08 24 59.678 +21 22 27.69 21.69   645 – Apache Point-Sloan Digital Sky Survey MPS 390024
2007 03 10.19900 08 15 35.64 +21 29 07.8 20.7 V G96 – Mt. Lemmon Survey MPS 202805
2007 03 10.20585 08 15 35.49 +21 29 07.6 20.7 V G96 – Mt. Lemmon Survey MPS 202805
